[[{"header":{"parameterUnit":"m.s-1","parameterCategory":1,"la1":30.2992,"la2":30.254,"lo1":-89.0895,"lo2":-89.0443,"dy":0.0025,"dx":0.0025,"nx":19,"ny":19,"refTime":"2026-04-27T21:00:00:Z","depth":0,"parameterNumber":2,"parameterNumberName":"U-component_of_WINDS"},"data":[0,0,0,-1.7337,-1.734,-1.7493,-1.7494,-1.768,-1.7682,0,0,0,0,0,0,0,0,0,0,0,-1.7284,-1.7285,-1.7337,-1.734,-1.7493,-1.7494,-1.768,-1.7682,0,0,0,0,0,0,0,0,0,0,0,-1.7284,-1.7285,-1.7286,-1.7341,-1.7493,-1.7494,-1.7679,-1.7568,0,0,0,0,0,0,0,0,0,0,-1.7421,-1.7364,-1.7285,-1.7286,-1.7342,-1.7493,-1.7494,-1.7563,-1.7575,-1.7606,0,-1.763,0,-1.7659,-1.7693,-1.7694,0,0,0,-1.7347,-1.7354,-1.7402,-1.7286,-1.7343,-1.7492,-1.7426,-1.757,-1.7583,-1.7622,-1.7633,-1.764,-1.7662,-1.7694,-1.7695,-1.785,-1.7851,0,0,-1.7338,-1.7308,-1.7392,-1.741,-1.7384,-1.7421,-1.7431,-1.7578,-1.7589,-1.7634,-1.7645,-1.7665,-1.7696,-1.7697,-1.785,-1.785,0,0,0,-1.731,-1.7302,-1.7346,-1.7403,-1.7431,-1.7425,-1.7436,-1.7582,-1.7599,-1.7647,-1.7667,-1.7697,-1.7699,-1.785,-1.785,-1.7841,0,0,0,-1.7305,-1.7285,-1.7342,-1.7325,-1.7428,-1.7508,-1.7437,-1.7589,-1.7606,-1.7666,-1.7697,-1.77,-1.7849,-1.785,-1.784,-1.7841,0,0,0,-1.7277,-1.7282,-1.7301,-1.7324,-1.7388,-1.7506,-1.7532,-1.7593,-1.7618,-1.7694,-1.7701,-1.7849,-1.785,-1.7839,-1.784,-1.7873,0,0,0,-1.7239,-1.7292,-1.7301,-1.7368,-1.7386,-1.7498,-1.7531,-1.7617,-1.7681,-1.7698,-1.7849,-1.785,-1.7839,-1.784,-1.7872,-1.7894,-1.79,0,0,-1.7289,-1.7297,-1.7339,-1.7351,-1.7454,-1.7478,-1.758,-1.7668,-1.7705,-1.78,-1.7804,-1.784,-1.784,-1.7873,-1.7948,-1.7952,0,0,0,-1.7345,-1.7375,-1.7409,-1.7467,-1.7534,-1.7593,-1.7668,-1.7701,-1.7783,-1.7747,-1.7862,-1.7863,-1.7883,-1.7895,-1.7899,-1.7919,-1.7854,-1.7854,-1.7854,-1.7373,-1.7415,-1.7487,-1.7547,-1.7604,-1.7681,-1.7731,-1.7789,-1.7816,-1.7842,-1.7871,-1.7911,-1.7924,-1.7927,-1.7947,-1.7886,-1.7886,-1.7886,-1.7886,-1.745,-1.7499,-1.7533,-1.7615,-1.766,-1.773,-1.7807,-1.7824,-1.7897,-1.7893,-1.7913,-1.7904,-1.7931,-1.795,-1.7886,-1.7886,-1.7886,-1.7886,-1.7886,-1.7473,-1.7504,-1.7541,-1.763,-1.7694,-1.7754,-1.7822,-1.7861,-1.7899,-1.7918,-1.7953,-1.7953,-1.7958,-1.7932,-1.7932,-1.7932,-1.7932,-1.7933,-1.7933,-1.7481,-1.7524,-1.7576,-1.7651,-1.7694,-1.7755,-1.7833,-1.7877,-1.7935,-1.7959,-1.7959,-1.7983,-1.7925,-1.7909,-1.7935,-1.7935,-1.7934,-1.7934,-1.7934,-1.7544,-1.7535,-1.7615,-1.7657,-1.7749,-1.781,-1.7859,-1.7945,-1.7987,-1.8019,-1.804,-1.7991,-1.8002,-1.7999,-1.7986,-1.803,-1.803,-1.803,-1.803,-1.7562,-1.7571,-1.7661,-1.7726,-1.7795,-1.7846,-1.7937,-1.7998,-1.8062,-1.8091,-1.809,-1.8077,-1.8072,-1.8087,-1.8082,-1.807,-1.8135,-1.8135,-1.8135,-1.7603,-1.762,-1.7688,-1.7747,-1.7823,-1.7887,-1.7973,-1.8048,-1.8119,-1.814,-1.8114,-1.811,-1.8089,-1.808,-1.8099,-1.8091,-1.8071,0,0]},{"header":{"parameterUnit":"m.s-1","parameterCategory":1,"la1":30.2992,"la2":30.254,"lo1":-89.0895,"lo2":-89.0443,"dy":0.0025,"dx":0.0025,"nx":19,"ny":19,"refTime":"2026-04-27T21:00:00:Z","depth":0,"parameterNumber":3,"parameterNumberName":"V-component_of_WINDS"},"data":[0,0,0,4.6282,4.6284,4.6374,4.6374,4.6492,4.6493,0,0,0,0,0,0,0,0,0,0,0,4.6258,4.6259,4.6282,4.6284,4.6374,4.6374,4.6492,4.6493,0,0,0,0,0,0,0,0,0,0,0,4.6258,4.6259,4.626,4.6285,4.6374,4.6374,4.6491,4.6422,0,0,0,0,0,0,0,0,0,0,4.6335,4.6316,4.6259,4.626,4.6285,4.6374,4.6374,4.6419,4.6427,4.6453,0,4.6478,0,4.6487,4.6501,4.6501,0,0,0,4.6282,4.6309,4.6331,4.626,4.6286,4.6373,4.6333,4.6423,4.6432,4.6463,4.6479,4.6484,4.6489,4.6502,4.6502,4.6665,4.6666,0,0,4.6277,4.6276,4.6325,4.6337,4.6325,4.633,4.6335,4.6428,4.6446,4.648,4.6486,4.6491,4.6503,4.6504,4.6664,4.6665,0,0,0,4.6264,4.6272,4.6292,4.6332,4.6348,4.6332,4.6339,4.6442,4.6448,4.6488,4.6493,4.6503,4.6505,4.6663,4.6664,4.6707,0,0,0,4.6261,4.6265,4.629,4.629,4.6347,4.6396,4.635,4.6442,4.6452,4.6492,4.6503,4.6506,4.6662,4.6664,4.6704,4.6727,0,0,0,4.6251,4.6264,4.6278,4.629,4.6328,4.6395,4.6407,4.6444,4.6455,4.6502,4.6506,4.6661,4.6663,4.6701,4.6723,4.677,0,0,0,4.624,4.6314,4.6279,4.6362,4.6328,4.6421,4.6406,4.6475,4.652,4.6504,4.6662,4.6664,4.67,4.672,4.6767,4.681,4.6828,0,0,4.6332,4.6325,4.6374,4.6345,4.6445,4.6407,4.6513,4.6554,4.6559,4.6629,4.6633,4.6705,4.6722,4.6769,4.6928,4.6943,0,0,0,4.6403,4.6439,4.6465,4.6508,4.6543,4.6574,4.6599,4.6615,4.6674,4.6595,4.6735,4.6745,4.6773,4.6794,4.6806,4.683,4.6674,4.6673,4.6673,4.6531,4.6534,4.6616,4.6631,4.6673,4.6699,4.6733,4.6758,4.6748,4.6781,4.6802,4.6898,4.6922,4.6931,4.6956,4.6825,4.6825,4.6825,4.6825,4.6666,4.6717,4.6703,4.6778,4.6781,4.6843,4.6871,4.6862,4.692,4.6883,4.6907,4.6865,4.6947,4.6969,4.6829,4.6828,4.6828,4.6827,4.6827,4.675,4.6775,4.6794,4.6857,4.6905,4.6917,4.6974,4.6974,4.6974,4.6999,4.7021,4.702,4.702,4.7009,4.701,4.701,4.701,4.7011,4.7011,4.683,4.685,4.6898,4.6942,4.697,4.7007,4.7034,4.7062,4.7092,4.7088,4.7088,4.7075,4.6955,4.6924,4.7016,4.7015,4.7015,4.7014,4.7014,4.6966,4.6936,4.7011,4.7039,4.709,4.7138,4.7138,4.7194,4.7217,4.7245,4.7227,4.7138,4.713,4.712,4.7095,4.7226,4.7226,4.7226,4.7226,4.7037,4.7034,4.7111,4.7156,4.7201,4.7209,4.7293,4.7315,4.7333,4.7347,4.7328,4.7295,4.7285,4.7283,4.727,4.7247,4.7413,4.7413,4.7413,4.7121,4.7122,4.7194,4.7212,4.7252,4.7286,4.7366,4.7418,4.7432,4.7421,4.7358,4.735,4.7297,4.7279,4.7266,4.7246,4.7203,0,0]}]]